| time (UTC) | temp F | wind direction | speed MPH | gust MPH | rain 1hr in | rain 24hr in | rain mn in | humidity % | barometer mb |
| 20260503011612 | 61 | 30 | 0.0 | 2.0 | 0.00 | 0.84 | 0.84 | 90 | 1013.3 |
| 20260503010033 | 61 | 30 | 0.0 | 2.0 | 0.00 | 0.84 | 0.84 | 90 | 1013.2 |
| 20260503004610 | 60 | 30 | 1.0 | 3.0 | 0.00 | 0.84 | 0.84 | 91 | 1013.1 |
| 20260503003031 | 60 | 35 | 2.0 | 3.0 | 0.00 | 0.84 | 0.84 | 91 | 1012.8 |
| 20260503001611 | 60 | 36 | 1.0 | 5.0 | 0.00 | 0.84 | 0.84 | 91 | 1012.6 |
| 20260503000034 | 60 | 44 | 1.0 | 4.0 | 0.00 | 0.84 | 0.84 | 91 | 1012.3 |
| 20260502234508 | 60 | 34 | 2.0 | 5.0 | 0.00 | 0.84 | 0.84 | 91 | 1012.0 |
| 20260502233041 | 61 | 322 | 2.0 | 8.0 | 0.00 | 0.84 | 0.84 | 90 | 1011.9 |
| 20260502231616 | 61 | 11 | 2.0 | 7.0 | 0.00 | 0.84 | 0.84 | 90 | 1011.7 |
| 20260502230036 | 61 | 29 | 3.0 | 11.0 | 0.00 | 0.84 | 0.84 | 89 | 1011.6 |
| 20260502224608 | 62 | 25 | 4.0 | 8.0 | 0.00 | 0.84 | 0.84 | 88 | 1011.2 |
| 20260502223028 | 62 | 40 | 3.0 | 10.0 | 0.00 | 0.84 | 0.84 | 88 | 1010.8 |
| 20260502221555 | 62 | 12 | 2.0 | 11.0 | 0.00 | 0.84 | 0.84 | 88 | 1010.6 |
| 20260502220021 | 62 | 20 | 5.0 | 13.0 | 0.00 | 0.84 | 0.84 | 89 | 1010.4 |
| 20260502214601 | 62 | 360 | 3.0 | 9.0 | 0.00 | 0.84 | 0.84 | 90 | 1010.1 |
| 20260502213037 | 62 | 316 | 4.0 | 9.0 | 0.00 | 0.84 | 0.84 | 90 | 1009.9 |
| 20260502211602 | 63 | 330 | 4.0 | 11.0 | 0.00 | 0.84 | 0.84 | 89 | 1009.8 |
| 20260502210025 | 65 | 43 | 4.0 | 11.0 | 0.00 | 0.84 | 0.84 | 87 | 1009.2 |
| 20260502204612 | 69 | 318 | 2.0 | 5.0 | 0.00 | 0.84 | 0.84 | 85 | 1009.3 |
| 20260502203028 | 69 | 348 | 1.0 | 6.0 | 0.00 | 0.84 | 0.84 | 84 | 1009.2 |
| 20260502201606 | 69 | 34 | 2.0 | 7.0 | 0.00 | 0.84 | 0.84 | 84 | 1009.1 |
| 20260502200038 | 69 | 310 | 2.0 | 4.0 | 0.00 | 0.84 | 0.84 | 86 | 1009.2 |
| 20260502194611 | 68 | 294 | 2.0 | 5.0 | 0.00 | 0.84 | 0.84 | 87 | 1009.1 |
| 20260502193044 | 67 | 360 | 1.0 | 5.0 | 0.00 | 0.84 | 0.84 | 92 | 1009.4 |
| 20260502191508 | 65 | 290 | 3.0 | 6.0 | 0.01 | 0.84 | 0.84 | 93 | 1010.1 |
| 20260502190044 | 65 | 311 | 2.0 | 4.0 | 0.02 | 0.84 | 0.84 | 93 | 1009.8 |
| 20260502184523 | 65 | 288 | 2.0 | 3.0 | 0.03 | 0.84 | 0.84 | 93 | 1009.9 |
| 20260502183047 | 64 | 305 | 1.0 | 4.0 | 0.03 | 0.84 | 0.84 | 93 | 1009.5 |
| 20260502181512 | 64 | 325 | 1.0 | 5.0 | 0.02 | 0.83 | 0.83 | 93 | 1009.8 |
| 20260502163047 | 63 | 60 | 1.0 | 3.0 | 0.05 | 0.81 | 0.81 | 94 | 1009.4 |
| 20260502161505 | 63 | 10 | 3.0 | 6.0 | 0.14 | 0.81 | 0.81 | 94 | 1010.1 |
| 20260502151516 | 62 | 203 | 0.0 | 2.0 | 0.25 | 0.67 | 0.67 | 94 | 1009.5 |
| 20260502140106 | 61 | 360 | 0.0 | 4.0 | 0.18 | 0.18 | 0.18 | 92 | 1009.6 |
| 20260502130105 | 62 | 50 | 1.0 | 3.0 | 0.00 | 0.00 | 0.00 | 86 | 1010.0 |
| 20260502123056 | 63 | 71 | 0.0 | 4.0 | 0.00 | 0.00 | 0.00 | 81 | 1009.7 |
| 20260502121523 | 64 | 72 | 1.0 | 3.0 | 0.00 | 0.00 | 0.00 | 80 | 1008.7 |
| 20260502120106 | 64 | 123 | 0.0 | 2.0 | 0.00 | 0.00 | 0.00 | 80 | 1009.7 |
| 20260502114518 | 64 | 123 | 0.0 | 2.0 | 0.00 | 0.00 | 0.00 | 79 | 1009.1 |
| 20260502113053 | 64 | 123 | 0.0 | 2.0 | 0.00 | 0.00 | 0.00 | 79 | 1009.2 |
| 20260502111516 | 63 | 123 | 0.0 | 2.0 | 0.00 | 0.00 | 0.00 | 80 | 1009.1 |
| 20260502110051 | 63 | 123 | 0.0 | 2.0 | 0.00 | 0.00 | 0.00 | 80 | 1009.4 |
| 20260502104519 | 63 | 123 | 0.0 | 2.0 | 0.00 | 0.00 | 0.00 | 80 | 1009.2 |
| 20260502103101 | 63 | 123 | 0.0 | 2.0 | 0.00 | 0.00 | 0.00 | 81 | 1009.1 |
| 20260502101535 | 62 | 129 | 0.0 | 0.0 | 0.00 | 0.00 | 0.00 | 82 | 1008.8 |
| 20260502100103 | 62 | 129 | 0.0 | 1.0 | 0.00 | 0.00 | 0.00 | 82 | 1008.7 |
| 20260502091527 | 62 | 129 | 0.0 | 2.0 | 0.00 | 0.00 | 0.00 | 83 | 1008.9 |
| 20260502080108 | 64 | 51 | 0.0 | 2.0 | 0.00 | 0.00 | 0.00 | 82 | 1009.3 |
| 20260502071535 | 64 | 49 | 0.0 | 2.0 | 0.00 | 0.00 | 0.00 | 83 | 1010.6 |
| 20260502070107 | 64 | 49 | 0.0 | 2.0 | 0.00 | 0.00 | 0.00 | 84 | 1010.8 |
| 20260502064552 | 64 | 49 | 0.0 | 0.0 | 0.00 | 0.00 | 0.00 | 84 | 1010.8 |
| 20260502063106 | 64 | 49 | 0.0 | 0.0 | 0.00 | 0.00 | 0.00 | 83 | 1010.7 |
| 20260502061533 | 64 | 49 | 0.0 | 0.0 | 0.00 | 0.00 | 0.00 | 83 | 1010.7 |
| 20260502060108 | 64 | 49 | 0.0 | 0.0 | 0.00 | 0.00 | 0.00 | 82 | 1010.7 |
| 20260502054533 | 65 | 49 | 0.0 | 0.0 | 0.00 | 0.00 | 0.00 | 80 | 1010.7 |
| 20260502053112 | 65 | 49 | 0.0 | 0.0 | 0.00 | 0.00 | 0.00 | 80 | 1011.0 |
| 20260502051531 | 65 | 49 | 0.0 | 0.0 | 0.00 | 0.00 | 0.00 | 79 | 1011.0 |
| 20260502050115 | 66 | 49 | 0.0 | 0.0 | 0.00 | 0.00 | 0.00 | 79 | 1011.0 |
| 20260502044541 | 66 | 49 | 0.0 | 0.0 | 0.00 | 0.00 | 0.00 | 77 | 1011.0 |
| 20260502043004 | 67 | 49 | 0.0 | 0.0 | 0.00 | 0.00 | 0.00 | 76 | 1011.2 |
| 20260502041536 | 68 | 49 | 0.0 | 0.0 | 0.00 | 0.00 | 0.00 | 75 | 1011.0 |
| 20260502040114 | 68 | 49 | 0.0 | 0.0 | 0.00 | 0.00 | 0.00 | 74 | 1011.1 |
| 20260502034554 | 68 | 48 | 0.0 | 0.0 | 0.00 | 0.00 | 0.00 | 74 | 1011.2 |
| 20260502033014 | 69 | 48 | 0.0 | 2.0 | 0.00 | 0.00 | 0.00 | 73 | 1011.3 |
| 20260502031616 | 69 | 48 | 0.0 | 2.0 | 0.00 | 0.00 | 0.00 | 72 | 1011.3 |
| 20260502030021 | 69 | 48 | 0.0 | 2.0 | 0.00 | 0.00 | 0.00 | 72 | 1011.6 |
| 20260502024553 | 69 | 48 | 1.0 | 2.0 | 0.00 | 0.00 | 0.00 | 71 | 1011.2 |
| 20260502023013 | 69 | 38 | 0.0 | 2.0 | 0.00 | 0.00 | 0.00 | 70 | 1010.6 |
| 20260502021549 | 70 | 38 | 0.0 | 2.0 | 0.00 | 0.00 | 0.00 | 69 | 1011.4 |
| 20260502020025 | 70 | 40 | 1.0 | 3.0 | 0.00 | 0.00 | 0.00 | 67 | 1011.5 |
| 20260502014557 | 70 | 36 | 0.0 | 2.0 | 0.00 | 0.00 | 0.00 | 66 | 1011.6 |
| 20260502013026 | 70 | 21 | 0.0 | 3.0 | 0.00 | 0.00 | 0.00 | 65 | 1011.6 |